Location: Cormont
(50.5693°N, 1.7416°E)
Time: 03:19:33
(UTC+00:00)

STARLINK-25 - Pass Details

Date: 21 October 2019
Orbit: 548 x 551 km, 53.0° (Epoch: 15 November)

Event Time Altitude Azimuth Distance (km) Brightness Sun altitude
Rises 19:24:13 0° 286° (WNW) 2,720 8.6 -25.1°
Reaches altitude 10° 19:26:27 10° 288° (WNW) 1,825 7.3 -25.5°
Enters shadow 19:29:43 53° 304° (NW) 678 4.3 -26.0°
